Terug naar catalogus

POEM

ActiefWetenschapVLEO
NORAD 52939·PAYLOAD·🇮🇳 India

Gelanceerd Jun 30, 2022 vanaf Satish Dhawan Space Centre

Loading…

Volgende Passages (komende 24 uur)

TLE

VersSource: Space-Track

Epoch: Sep 14, 2026, 23:12 UTC

1 52939U 22072E   26257.96727634  .00007389  00000-0  24788-3 0  9996
2 52939   9.9509 107.6756 0021888  92.8923 267.3797 15.24975437233235

Volg POEM in realtime met AllMySat

Download on the App Store